Regional Weather Roundup
Issued by NWS Green Bay, WI

Home | Current Version | Previous Version | Text Only | Print | Product List | Glossary On
Versions: 1 2 3 4 5 6 7 8 9 10 11 12 13 14 15 16 17 18 19 20 21 22 23 24 25 26 27 28 29 30 31 32 33 34 35 36 37 38 39 40 41 42 43 44 45 46 47 48 49 50
000
ASUS43 KGRB 160211
RWRGRB

NORTH-CENTRAL AND NORTHEAST WISCONSIN REGIONAL WEATHER ROUNDUP
NATIONAL WEATHER SERVICE GREEN BAY WI
800 PM CST SUN JAN 15 2017

WIZ005-009-010>012-018-019-160300-
NORTH CENTRAL WISCONSIN

CITY           SKY/WX    TMP DP  RH WIND       PRES   REMARKS
IRONWOOD       CLEAR     26  11  52 S12       30.12F
MANITOWISH WTR CLOUDY    19   9  65 SW6       30.16S
ARBOR VITAE    CLOUDY    22  10  61 S5        30.17F
EAGLE RIVER    CLOUDY    20  10  63 SW6       30.16F
LAND O LAKES   CLOUDY    23  10  59 SW3       30.16F
RHINELANDER    CLOUDY    16   8  71 SW7       30.19S WCI   6
PHILLIPS       CLOUDY    18   9  67 S5        30.19S
ANTIGO         CLOUDY     9   5  84 CALM      30.22S
TOMAHAWK       CLOUDY    16   8  73 CALM      30.21S
MERRILL        CLOUDY     3   1  90 CALM        N/A  FOG
$$

WIZ013-073-160300-
NORTHEAST WISCONSIN

CITY           SKY/WX    TMP DP  RH WIND       PRES   REMARKS
IRON MOUNTAIN  CLEAR     26   8  46 W6        30.16F
MARINETTE      NOT AVBL
OCONTO         CLOUDY    19  10  67 SW5       30.27F
$$

WIZ017-030-035>037-045-160300-
CENTRAL WISCONSIN

CITY           SKY/WX    TMP DP  RH WIND       PRES   REMARKS
MEDFORD        CLOUDY    13   7  79 S5        30.21S WCI   5
WAUSAU         CLOUDY    17   9  70 E3        30.23F
MOSINEE        CLEAR     16  12  86 S3        30.25S
MARSHFIELD     CLOUDY    14   9  80 SW3       30.23F
WISC RAPIDS    CLOUDY    12   9  87 CALM      30.27F FOG
STEVENS POINT  CLOUDY     6   4  91 CALM      30.27S
WAUPACA        CLOUDY    13   8  81 CALM      30.28F
SHAWANO        CLOUDY    20  12  69 CALM      30.28S
CLINTONVILLE   CLOUDY    10   5  79 CALM      30.27F
WAUTOMA        CLOUDY     9   7  92 CALM      30.29S
$$

WIZ038-039-048-051-160300-
FOX VALLEY

CITY           SKY/WX    TMP DP  RH WIND       PRES   REMARKS
NWS GREEN BAY  CLOUDY    18  11  74 SW3       30.28F
APPLETON       PTCLDY    16   9  73 S6        30.26F WCI   7
OSHKOSH        CLOUDY    12   8  84 SW5       30.28F WCI   4
FOND DU LAC    FLURRIES   8   4  83 S5        30.29F WCI   0
$$

WIZ022-050-052-160300-
EAST CENTRAL WISCONSIN

CITY           SKY/WX    TMP DP  RH WIND       PRES   REMARKS
EPHRAIM        FAIR      21  12  66 SW12      30.24S WCI   9
WASHINGTON ISL FAIR      22  12  65 SW12      30.24S
STURGEON BAY   CLOUDY    18  10  71 SW6       30.27S WCI  10
MANITOWOC      CLOUDY    12   8  84 CALM      30.30F
SHEBOYGAN      CLOUDY    15   8  73 W3        30.30S
$$

LMZ563-521-522-541>543-160300-
LAKESHORE

STATION/POSITION TIME  TEMP    WIND        PRES    VSBY  WAVE
                       AIR SEA DIR/SP/G                  HT/PER
                 (UTC) (F)     (DEG/KT/KT) (MB)    (MI)  (FT/S)
SHEBOYGAN LKSHOR 0200   27     240/  5/  5 1027.1F
KEWAUNEE LKSHORE 0142   19     210/  1/  4 1025.1F
NORTHPORT PIER   0140   22     200/  1/  7 1024.0F
SISTER BAY LKSHO 0150   23     240/  9/ 11   N/A
MENOMINEE LKSHOR 0136          210/  8/ 13 1023.5F
$$




USA.gov is the U.S. government's official web portal to all federal, state and local government web resources and services.